When you browse on this site, cookies collect data to enhance your experience and personalize the content and advertising you see.
Visit our Privacy Policy to learn more. By continuing to use the site, you agree to this use of cookies and data.
  • In Switzerland
  • List of Countries
  • For 7 days
  • Water Temperature
  • Satellite Maps
  • Weather Map
  • Weather Widgets
  • user-avatar
    Login

    Hourly Weather San Luis

    Today, 24 May, Friday

    Time Temperature Precipitation Wind Pressure Humidity
    00:00 +8°C° 0 mm 4 mps 700 mmHg 29%
    01:00 +8°C° 0 mm 4 mps 700 mmHg 28%
    02:00 +10°C° 0 mm 4 mps 699 mmHg 27%
    03:00 +10°C° 0 mm 4 mps 699 mmHg 26%
    04:00 +8°C° 0 mm 4 mps 699 mmHg 26%
    05:00 +8°C° 0 mm 4 mps 698 mmHg 25%
    06:00 +10°C° 0 mm 4 mps 699 mmHg 24%
    07:00 +10°C° 0 mm 3 mps 699 mmHg 24%
    08:00 +12°C° 0 mm 4 mps 699 mmHg 23%
    09:00 +14°C° 0 mm 4 mps 699 mmHg 19%
    10:00 +18°C° 0 mm 4 mps 699 mmHg 16%
    11:00 +21°C° 0 mm 4 mps 699 mmHg 13%
    12:00 +22°C° 0 mm 4 mps 699 mmHg 12%
    13:00 +22°C° 0 mm 4 mps 699 mmHg 12%
    14:00 +23°C° 0 mm 4 mps 698 mmHg 11%
    15:00 +22°C° 0 mm 3 mps 698 mmHg 14%
    16:00 +20°C° 0 mm 3 mps 697 mmHg 17%
    17:00 +18°C° 0 mm 3 mps 696 mmHg 21%
    18:00 +17°C° 0 mm 3 mps 696 mmHg 21%
    19:00 +16°C° 0 mm 3 mps 696 mmHg 20%
    20:00 +14°C° 0 mm 3 mps 696 mmHg 20%
    21:00 +14°C° 0 mm 4 mps 696 mmHg 20%
    22:00 +14°C° 0 mm 4 mps 696 mmHg 20%
    23:00 +13°C° 0 mm 5 mps 696 mmHg 21%

    Tomorrow, 25 May, Saturday

    Time Temperature Precipitation Wind Pressure Humidity
    00:00 +13°C° 0 mm 5 mps 696 mmHg 22%
    01:00 +13°C° 0 mm 5 mps 696 mmHg 23%
    02:00 +13°C° 0 mm 6 mps 696 mmHg 24%
    03:00 +13°C° 0 mm 5 mps 695 mmHg 24%
    04:00 +13°C° 0 mm 5 mps 695 mmHg 25%
    05:00 +13°C° 0 mm 5 mps 695 mmHg 25%
    06:00 +13°C° 0 mm 5 mps 695 mmHg 27%
    07:00 +13°C° 0 mm 4 mps 695 mmHg 29%
    08:00 +13°C° 0 mm 4 mps 695 mmHg 32%
    09:00 +15°C° 0 mm 4 mps 695 mmHg 30%
    10:00 +17°C° 0 mm 5 mps 696 mmHg 28%
    11:00 +19°C° 0 mm 5 mps 696 mmHg 25%
    12:00 +20°C° 0 mm 5 mps 695 mmHg 25%
    13:00 +21°C° 0 mm 5 mps 695 mmHg 24%
    14:00 +21°C° 0 mm 5 mps 694 mmHg 23%
    15:00 +20°C° 0 mm 4 mps 694 mmHg 27%
    16:00 +19°C° 0 mm 3 mps 694 mmHg 30%
    17:00 +18°C° 0 mm 3 mps 693 mmHg 34%
    18:00 +16°C° 0 mm 2 mps 693 mmHg 38%
    19:00 +14°C° 0 mm 2 mps 693 mmHg 41%
    20:00 +13°C° 0 mm 2 mps 693 mmHg 44%
    21:00 +12°C° 0 mm 2 mps 693 mmHg 46%
    22:00 +11°C° 0 mm 3 mps 693 mmHg 48%
    23:00 +10°C° 0 mm 3 mps 693 mmHg 50%

    Day after tomorrow, 26 May, Sunday

    Time Temperature Precipitation Wind Pressure Humidity
    00:00 +10°C° 0 mm 3 mps 693 mmHg 53%
    01:00 +10°C° 0 mm 3 mps 693 mmHg 56%
    02:00 +10°C° 0 mm 3 mps 693 mmHg 59%
    03:00 +9°C° 0 mm 2 mps 693 mmHg 62%
    04:00 +9°C° 0 mm 2 mps 693 mmHg 66%
    05:00 +9°C° 0 mm 1 mps 693 mmHg 69%
    06:00 +9°C° 0 mm 1 mps 693 mmHg 69%
    07:00 +9°C° 0 mm 1 mps 694 mmHg 69%
    08:00 +9°C° 0 mm 0 mps 695 mmHg 69%
    09:00 +12°C° 0 mm 1 mps 696 mmHg 61%
    10:00 +14°C° 0 mm 1 mps 696 mmHg 52%
    11:00 +18°C° 0 mm 1 mps 697 mmHg 44%
    12:00 +17°C° 0 mm 2 mps 697 mmHg 41%
    13:00 +18°C° 0 mm 2 mps 697 mmHg 39%
    14:00 +19°C° 0 mm 3 mps 697 mmHg 37%
    15:00 +18°C° 0 mm 3 mps 697 mmHg 38%
    16:00 +18°C° 0 mm 4 mps 697 mmHg 39%
    17:00 +17°C° 0 mm 4 mps 697 mmHg 39%
    18:00 +14°C° 0 mm 4 mps 697 mmHg 41%
    19:00 +13°C° 0 mm 4 mps 697 mmHg 42%
    20:00 +11°C° 0 mm 4 mps 697 mmHg 44%
    21:00 +11°C° 0 mm 4 mps 698 mmHg 44%
    22:00 +11°C° 0 mm 4 mps 698 mmHg 44%
    23:00 +10°C° 0 mm 4 mps 698 mmHg 44%

    27 May, Monday

    Time Temperature Precipitation Wind Pressure Humidity
    00:00 +10°C° 0 mm 4 mps 698 mmHg 43%
    01:00 +10°C° 0 mm 4 mps 698 mmHg 43%
    02:00 +10°C° 0 mm 4 mps 698 mmHg 42%
    03:00 +10°C° 0 mm 4 mps 698 mmHg 42%
    04:00 +8°C° 0 mm 4 mps 698 mmHg 41%
    05:00 +9°C° 0 mm 3 mps 698 mmHg 41%
    06:00 +9°C° 0 mm 3 mps 698 mmHg 40%
    07:00 +10°C° 0 mm 3 mps 698 mmHg 40%
    08:00 +10°C° 0 mm 3 mps 699 mmHg 39%
    09:00 +12°C° 0 mm 3 mps 699 mmHg 36%
    10:00 +16°C° 0 mm 3 mps 699 mmHg 32%
    11:00 +18°C° 0 mm 3 mps 700 mmHg 28%
    12:00 +19°C° 0 mm 3 mps 699 mmHg 27%
    13:00 +20°C° 0 mm 3 mps 698 mmHg 26%
    14:00 +20°C° 0 mm 3 mps 698 mmHg 25%
    15:00 +19°C° 0 mm 2 mps 697 mmHg 27%
    16:00 +18°C° 0 mm 2 mps 697 mmHg 30%
    17:00 +17°C° 0 mm 2 mps 697 mmHg 32%
    18:00 +15°C° 0 mm 1 mps 696 mmHg 37%
    19:00 +13°C° 0 mm 1 mps 696 mmHg 42%
    20:00 +11°C° 0 mm 1 mps 696 mmHg 47%
    21:00 +11°C° 0 mm 1 mps 696 mmHg 45%
    22:00 +11°C° 0 mm 1 mps 696 mmHg 43%
    23:00 +10°C° 0 mm 2 mps 696 mmHg 42%

    28 May, Tuesday

    Time Temperature Precipitation Wind Pressure Humidity
    00:00 +10°C° 0 mm 2 mps 696 mmHg 42%
    01:00 +10°C° 0 mm 3 mps 696 mmHg 41%
    02:00 +11°C° 0 mm 3 mps 696 mmHg 41%
    03:00 +11°C° 0 mm 3 mps 696 mmHg 47%
    04:00 +10°C° 0 mm 4 mps 696 mmHg 53%
    05:00 +10°C° 0 mm 4 mps 696 mmHg 58%
    06:00 +11°C° 0 mm 4 mps 696 mmHg 58%
    07:00 +11°C° 0 mm 4 mps 696 mmHg 59%
    08:00 +11°C° 0 mm 4 mps 697 mmHg 59%
    09:00 +13°C° 0 mm 4 mps 697 mmHg 51%
    10:00 +15°C° 0 mm 4 mps 697 mmHg 44%
    11:00 +18°C° 0 mm 4 mps 698 mmHg 37%
    12:00 +19°C° 0 mm 4 mps 697 mmHg 36%
    13:00 +19°C° 0 mm 3 mps 697 mmHg 36%
    14:00 +20°C° 0 mm 3 mps 697 mmHg 36%
    15:00 +19°C° 0 mm 3 mps 696 mmHg 39%
    16:00 +18°C° 0 mm 3 mps 696 mmHg 42%
    17:00 +17°C° 0 mm 3 mps 696 mmHg 45%
    18:00 +16°C° 0 mm 3 mps 696 mmHg 49%
    19:00 +14°C° 0 mm 4 mps 696 mmHg 52%
    20:00 +12°C° 0 mm 4 mps 696 mmHg 56%
    21:00 +12°C° 0 mm 4 mps 696 mmHg 61%
    22:00 +11°C° 0 mm 3 mps 696 mmHg 66%
    23:00 +12°C° 0 mm 2 mps 696 mmHg 71%

    29 May, Wednesday

    Time Temperature Precipitation Wind Pressure Humidity
    00:00 +11°C° 0 mm 3 mps 695 mmHg 75%
    01:00 +12°C° 0 mm 3 mps 695 mmHg 78%
    02:00 +12°C° 0 mm 3 mps 695 mmHg 82%
    03:00 +12°C° 0 mm 3 mps 695 mmHg 83%
    04:00 +12°C° 0 mm 3 mps 694 mmHg 83%
    05:00 +12°C° 0 mm 3 mps 694 mmHg 84%
    06:00 +12°C° 0 mm 3 mps 694 mmHg 84%
    07:00 +13°C° 0 mm 2 mps 695 mmHg 85%
    08:00 +13°C° 0 mm 2 mps 695 mmHg 85%
    09:00 +14°C° 0 mm 3 mps 695 mmHg 77%
    10:00 +15°C° 0 mm 4 mps 695 mmHg 68%
    11:00 +17°C° 0 mm 6 mps 696 mmHg 60%
    12:00 +17°C° 0 mm 5 mps 695 mmHg 59%
    13:00 +17°C° 0 mm 5 mps 695 mmHg 57%
    14:00 +19°C° 0 mm 5 mps 694 mmHg 55%
    15:00 +18°C° 0 mm 4 mps 694 mmHg 58%
    16:00 +17°C° 0 mm 3 mps 694 mmHg 60%
    17:00 +17°C° 0 mm 2 mps 694 mmHg 63%
    18:00 +15°C° 0 mm 2 mps 694 mmHg 69%
    19:00 +14°C° 0 mm 1 mps 694 mmHg 75%
    20:00 +13°C° 0 mm 1 mps 694 mmHg 81%
    21:00 +12°C° 0 mm 2 mps 695 mmHg 82%
    22:00 +12°C° 0 mm 2 mps 695 mmHg 84%
    23:00 +11°C° 0 mm 3 mps 695 mmHg 86%
    Show more